EN

Hourly Weather Toromka

Today, 22 April, Thursday

Time Temperature Precipitation Wind Pressure Humidity
00:00 +3°C° 0 mm 2 mps 769 mmHg 82%
01:00 +3°C° 0 mm 2 mps 769 mmHg 84%
02:00 +2°C° 0 mm 2 mps 769 mmHg 85%
03:00 +2°C° 0 mm 2 mps 769 mmHg 86%
04:00 +2°C° 0 mm 2 mps 769 mmHg 87%
05:00 +2°C° 0 mm 3 mps 769 mmHg 80%
06:00 +4°C° 0 mm 3 mps 769 mmHg 73%
07:00 +5°C° 0 mm 3 mps 769 mmHg 66%
08:00 +7°C° 0 mm 4 mps 769 mmHg 60%
09:00 +10°C° 0 mm 4 mps 769 mmHg 54%
10:00 +12°C° 0 mm 5 mps 769 mmHg 47%
11:00 +13°C° 0 mm 5 mps 769 mmHg 44%
12:00 +14°C° 0 mm 5 mps 768 mmHg 40%
13:00 +15°C° 0 mm 5 mps 768 mmHg 37%
14:00 +15°C° 0 mm 5 mps 768 mmHg 36%
15:00 +15°C° 0 mm 4 mps 767 mmHg 36%
16:00 +15°C° 0 mm 4 mps 767 mmHg 35%
17:00 +14°C° 0 mm 3 mps 767 mmHg 40%
18:00 +12°C° 0 mm 3 mps 766 mmHg 45%
19:00 +12°C° 0 mm 2 mps 766 mmHg 50%
20:00 +10°C° 0 mm 3 mps 766 mmHg 53%
21:00 +9°C° 0 mm 3 mps 766 mmHg 56%
22:00 +8°C° 0 mm 3 mps 766 mmHg 59%
23:00 +8°C° 0 mm 3 mps 766 mmHg 62%

Tomorrow, 23 April, Friday

Time Temperature Precipitation Wind Pressure Humidity
00:00 +7°C° 0 mm 3 mps 766 mmHg 64%
01:00 +7°C° 0 mm 2 mps 766 mmHg 67%
02:00 +6°C° 0 mm 2 mps 766 mmHg 69%
03:00 +6°C° 0 mm 2 mps 766 mmHg 71%
04:00 +6°C° 0 mm 2 mps 766 mmHg 73%
05:00 +6°C° 0 mm 2 mps 766 mmHg 71%
06:00 +7°C° 0 mm 2 mps 766 mmHg 69%
07:00 +7°C° 0 mm 2 mps 766 mmHg 66%
08:00 +8°C° 0 mm 3 mps 766 mmHg 62%
09:00 +9°C° 0 mm 3 mps 766 mmHg 58%
10:00 +10°C° 0 mm 4 mps 766 mmHg 54%
11:00 +11°C° 0 mm 4 mps 766 mmHg 55%
12:00 +11°C° 0 mm 4 mps 766 mmHg 57%
13:00 +10°C° 0 mm 5 mps 766 mmHg 58%
14:00 +11°C° 0.1 mm 4 mps 766 mmHg 61%
15:00 +11°C° 0.1 mm 3 mps 766 mmHg 64%
16:00 +10°C° 0.1 mm 3 mps 766 mmHg 68%
17:00 +10°C° 0.1 mm 2 mps 766 mmHg 71%
18:00 +10°C° 0.1 mm 1 mps 766 mmHg 74%
19:00 +8°C° 0.1 mm 0 mps 766 mmHg 77%
20:00 +8°C° 0.1 mm 0 mps 766 mmHg 80%
21:00 +8°C° 0.1 mm 0 mps 765 mmHg 82%
22:00 +7°C° 0.1 mm 0 mps 765 mmHg 84%
23:00 +7°C° 0 mm 0 mps 765 mmHg 85%

Day after tomorrow, 24 April, Saturday

Time Temperature Precipitation Wind Pressure Humidity
00:00 +7°C° 0 mm 0 mps 765 mmHg 87%
01:00 +6°C° 0 mm 0 mps 765 mmHg 88%
02:00 +6°C° 0 mm 0 mps 765 mmHg 89%
03:00 +6°C° 0 mm 0 mps 764 mmHg 90%
04:00 +6°C° 0 mm 0 mps 764 mmHg 90%
05:00 +7°C° 0.1 mm 1 mps 764 mmHg 90%
06:00 +8°C° 0.1 mm 1 mps 764 mmHg 89%
07:00 +8°C° 0.1 mm 1 mps 763 mmHg 89%
08:00 +8°C° 0 mm 1 mps 763 mmHg 86%
09:00 +9°C° 0 mm 1 mps 763 mmHg 82%
10:00 +9°C° 0 mm 1 mps 763 mmHg 79%
11:00 +9°C° 0.1 mm 2 mps 762 mmHg 73%
12:00 +10°C° 0.1 mm 2 mps 762 mmHg 67%
13:00 +12°C° 0.1 mm 2 mps 761 mmHg 60%
14:00 +12°C° 0 mm 2 mps 761 mmHg 58%
15:00 +11°C° 0 mm 3 mps 761 mmHg 56%
16:00 +11°C° 0 mm 3 mps 761 mmHg 54%
17:00 +10°C° 0 mm 3 mps 761 mmHg 60%
18:00 +9°C° 0 mm 3 mps 761 mmHg 66%
19:00 +7°C° 0 mm 2 mps 761 mmHg 72%
20:00 +7°C° 0 mm 2 mps 761 mmHg 73%
21:00 +7°C° 0 mm 2 mps 760 mmHg 74%
22:00 +6°C° 0 mm 2 mps 760 mmHg 75%
23:00 +6°C° 0 mm 2 mps 759 mmHg 74%

25 April, Sunday

Time Temperature Precipitation Wind Pressure Humidity
00:00 +6°C° 0 mm 2 mps 759 mmHg 73%
01:00 +4°C° 0 mm 3 mps 759 mmHg 72%
02:00 +4°C° 0 mm 3 mps 758 mmHg 72%
03:00 +5°C° 0 mm 2 mps 758 mmHg 72%
04:00 +4°C° 0 mm 2 mps 758 mmHg 72%
05:00 +5°C° 0 mm 2 mps 758 mmHg 69%
06:00 +5°C° 0 mm 3 mps 758 mmHg 66%
07:00 +5°C° 0 mm 3 mps 758 mmHg 63%
08:00 +7°C° 0 mm 3 mps 757 mmHg 58%
09:00 +7°C° 0 mm 4 mps 757 mmHg 53%
10:00 +8°C° 0 mm 4 mps 757 mmHg 48%
11:00 +10°C° 0 mm 4 mps 756 mmHg 47%
12:00 +10°C° 0 mm 4 mps 756 mmHg 46%
13:00 +11°C° 0 mm 4 mps 756 mmHg 45%
14:00 +11°C° 0 mm 4 mps 755 mmHg 47%
15:00 +11°C° 0 mm 4 mps 755 mmHg 49%
16:00 +11°C° 0 mm 4 mps 755 mmHg 51%
17:00 +10°C° 0 mm 4 mps 754 mmHg 56%
18:00 +8°C° 0 mm 4 mps 754 mmHg 62%
19:00 +7°C° 0 mm 4 mps 754 mmHg 67%
20:00 +7°C° 0 mm 4 mps 753 mmHg 68%
21:00 +6°C° 0 mm 4 mps 753 mmHg 70%
22:00 +5°C° 0 mm 4 mps 752 mmHg 71%
23:00 +5°C° 0.1 mm 3 mps 752 mmHg 74%

26 April, Monday

Time Temperature Precipitation Wind Pressure Humidity
00:00 +5°C° 0.1 mm 3 mps 751 mmHg 77%
01:00 +5°C° 0.1 mm 2 mps 751 mmHg 79%
02:00 +5°C° 0.4 mm 2 mps 751 mmHg 83%
03:00 +4°C° 0.4 mm 3 mps 751 mmHg 86%
04:00 +4°C° 0.4 mm 3 mps 751 mmHg 89%
05:00 +5°C° 0 mm 3 mps 751 mmHg 85%
06:00 +5°C° 0 mm 4 mps 751 mmHg 81%
07:00 +5°C° 0 mm 4 mps 751 mmHg 77%
08:00 +6°C° 0 mm 4 mps 752 mmHg 76%
09:00 +6°C° 0 mm 4 mps 752 mmHg 75%
10:00 +6°C° 0 mm 4 mps 752 mmHg 74%
11:00 +7°C° 0.1 mm 5 mps 752 mmHg 65%
12:00 +9°C° 0.1 mm 5 mps 753 mmHg 55%
13:00 +10°C° 0.1 mm 6 mps 753 mmHg 46%
14:00 +10°C° 0.1 mm 5 mps 753 mmHg 46%
15:00 +10°C° 0.1 mm 5 mps 753 mmHg 46%
16:00 +11°C° 0.1 mm 4 mps 753 mmHg 45%
17:00 +10°C° 0.1 mm 4 mps 754 mmHg 49%
18:00 +8°C° 0.1 mm 4 mps 754 mmHg 52%
19:00 +7°C° 0.1 mm 4 mps 754 mmHg 55%
20:00 +6°C° 0 mm 4 mps 754 mmHg 58%
21:00 +5°C° 0 mm 4 mps 754 mmHg 62%
22:00 +4°C° 0 mm 3 mps 754 mmHg 65%
23:00 +4°C° 0 mm 3 mps 754 mmHg 69%

27 April, Tuesday

Time Temperature Precipitation Wind Pressure Humidity
00:00 +3°C° 0 mm 3 mps 754 mmHg 72%
01:00 +3°C° 0 mm 3 mps 754 mmHg 75%
02:00 +3°C° 0 mm 2 mps 754 mmHg 78%
03:00 +3°C° 0 mm 2 mps 753 mmHg 81%
04:00 +3°C° 0 mm 2 mps 753 mmHg 84%
05:00 +3°C° 0 mm 3 mps 753 mmHg 76%
06:00 +5°C° 0 mm 3 mps 753 mmHg 68%
07:00 +7°C° 0 mm 3 mps 753 mmHg 60%
08:00 +8°C° 0 mm 4 mps 752 mmHg 53%
09:00 +10°C° 0 mm 4 mps 752 mmHg 45%
10:00 +12°C° 0 mm 4 mps 752 mmHg 38%
11:00 +13°C° 0 mm 4 mps 751 mmHg 36%
12:00 +13°C° 0 mm 4 mps 751 mmHg 33%
13:00 +14°C° 0 mm 4 mps 751 mmHg 31%
14:00 +14°C° 0 mm 3 mps 750 mmHg 31%
15:00 +14°C° 0 mm 3 mps 750 mmHg 31%
16:00 +14°C° 0 mm 3 mps 749 mmHg 31%
17:00 +13°C° 0 mm 2 mps 749 mmHg 37%
18:00 +12°C° 0 mm 2 mps 749 mmHg 43%
19:00 +11°C° 0 mm 1 mps 749 mmHg 49%
20:00 +9°C° 0 mm 2 mps 749 mmHg 52%
21:00 +8°C° 0 mm 2 mps 749 mmHg 54%
22:00 +7°C° 0 mm 2 mps 748 mmHg 57%
23:00 +6°C° 0 mm 2 mps 748 mmHg 63%
Show more

We Need Your Consent

Meteoprog and our Service Providers may store and access personal data such as cookies, device identifiers or other similar technologies on your device and process such data to personalise content and ads, as well as provide social media features and to analyse the traffic.

  • Store and/or access information on your device

    Cookies, device identifiers or other information can be stored or accessed on your device for the purposes indicated above.

  • Personalised ads and content, ad and content measurement, audience insights, and products development

    Ads and content can be personalised based on a profile. More data can be added to better personalise ads and content. Ad and content performance can be measured. Insights about the audience who saw the ads and content can be derived. Such data can be used to develop or improve user’s experience, systems and software.

By clicking ‘I Agree’ you will allow the use of indicated cookies, device identifiers, web beacons or other similar technologies. Your settings can be changed in the browser on your device.

For certain purposes, legitimate interests may be relied on, rather than consent. You can read more about this in our Privacy and Cookie Policy.